Starlink 30301

operational
NORAD ID: 57666 Int'l Des: 2023-124 Owner: SPXS Country: US Constellation: starlink
LEOCIRCULAR

关于 Starlink 30301

正在加载描述...

实时位置

正在加载3D地球...

即将过境

高度历史

Altitude vs Time

uPlot chart will show altitude changes over time

两行轨道根数

1 57666U 23124D 25308.50526922 .00015204 00000-0 51839-3 0 9992
2 57666 53.1575 130.2698 0001028 84.2720 275.8398 15.30575075123502
Epoch: Nov 4, 2025 • Age: 9 hours

当前状态

高度 482.2 km
速度 7.62 km/s
星下点 -26.36°S, 101.69°E
发射日期 Aug 22, 2023
运行时间 2.2 years
类型 internet

技术详情

分类 Payload
质量 730.00 kg
干质量 700.00 kg
总质量 730.00 kg
长度 0.30 m
直径 4.10 m
跨度 29.00 m
形状 Box + pan
制造商 SPXS
平台类型 Starlink V2M
阶段状态 In Orbit
所有者/国家 SPXS/US

大型星座

Loading constellations...